> Flugplatz > 
Bitte achten Sie beim Anflug auf mögliche Fallschirmspringer auf der Nord seite desPlatzes, kontaktieren Sie zur Sicherheit den Flugleiter auf Leutkirch INFO 122,875.
Zollabfertigung:
für Ein- und Ausflug bei Voranmeldung mindestens 3 Stunden, nur Personenverkehr – keine Warenabfertigung.
Günstig Tanken:
Avgas 100 II · Super 95 · Jet A1 · Diesel
Achtung! Sommer-Öffnungszeiten:
15.03.2016 – 31.10.2016:
Täglich 09:00 – SS+30/20:00 (loc)
So/Hol  10:30 – SS+30/20:00 (loc)

Weitere Informationen finden Sie in unserem Newsbereich.

Nutzen Sie unsere Online-Anmeldung zur Zoll- und Passkontrolle.
Aktuelles:
Sicherheits- und Servicehinweise:
2016/09/29 19:50 EDJA 291950Z 20007KT CAVOK 13/09 Q1020
2016/09/30 00:50 EDNY 300050Z AUTO 08004KT 9999 09/08 Q1020
2016/09/30 01:20 ETHL 300120Z 24005KT 9999 12/09 Q1019 BLU+
Aktuelle METAR Daten (Memmingen, Friedrichshafen, Laupheim):